[[{"header":{"parameterUnit":"m.s-1","parameterCategory":2,"la1":30.2991,"la2":30.254,"lo1":-89.0895,"lo2":-89.0444,"dy":0.0017,"dx":0.0017,"nx":28,"ny":28,"refTime":"2023-10-05T03:00:00:Z","depth":"0","parameterNumber":2,"parameterNumberName":"U-component_of_CURRENTS"},"data":[0,0,0,0,0,0,0,0,0,0,0,0,0,0,0,0,0,0,0,0,0,0,0,0,0,0,0,0,0,0,0,0,0,0,0,0,0,0,0,0,0,0,0,0,0,0,0,0,0,0,0,0,0,0,0,0,0,0,0.35,0.3501,0,0.3533,0.3533,0.3533,0.3523,0.3523,0.3523,0.3523,0.3477,0.3476,0.3475,0,0,0,0,0,0,0,0,0,0,0,0,0,0.3457,0.3457,0.35,0.3501,0.3502,0.3533,0.3533,0.3533,0.3523,0.3523,0.3523,0.3523,0.3478,0.3477,0.3475,0,0,0,0,0,0,0,0,0,0,0,0,0,0.3476,0.3457,0.35,0.3505,0.3506,0.3533,0.3533,0.3533,0.3523,0.3523,0.3523,0.3523,0.3478,0.3477,0.3475,0.347,0,0,0.347,0.347,0,0,0,0,0,0,0,0,0.3475,0.3477,0.3503,0.3505,0.3506,0.3529,0.3502,0.351,0.3523,0.3511,0.3523,0.3522,0.3491,0.3489,0.3488,0.3468,0.3466,0.347,0.3469,0.3468,0.3468,0,0,0,0,0,0,0,0.3474,0.3476,0.3507,0.3504,0.3506,0.3516,0.3518,0.3503,0.3496,0.3512,0.3513,0.3525,0.3491,0.349,0.3487,0.3465,0.347,0.3469,0.3468,0.3467,0.3465,0.3466,0,0,0,0,0,0,0.348,0.3474,0.3506,0.3509,0.3496,0.3517,0.3519,0.3517,0.3498,0.3497,0.3526,0.3525,0.3493,0.3489,0.3485,0.3502,0.3468,0.3467,0.3466,0.3464,0.3465,0.3466,0,0,0,0,0,0,0.3479,0.3482,0.3505,0.3498,0.3502,0.3519,0.3517,0.3518,0.3518,0.351,0.3507,0.3525,0.3492,0.3488,0.3482,0.35,0.3466,0.3465,0.3463,0.3464,0.3465,0.3521,0,0,0,0,0,0,0.3477,0.3481,0.3477,0.3498,0.3503,0.3516,0.3518,0.3519,0.3529,0.3528,0.3509,0.3505,0.3492,0.3485,0.3481,0.3497,0.3464,0.3462,0.3463,0.3465,0.3518,0.3524,0.3529,0,0,0,0,0,0.3475,0.3465,0.3476,0.3481,0.3498,0.3517,0.3519,0.3527,0.353,0.3526,0.3524,0.3505,0.3493,0.3484,0.3479,0.3495,0.3461,0.3463,0.3465,0.3515,0.3523,0.3529,0,0,0,0,0,0,0.3432,0.3464,0.3477,0.3474,0.3497,0.3517,0.3522,0.3529,0.3526,0.3526,0.3512,0.3508,0.3514,0.3495,0.3486,0.35,0.3475,0.3476,0.3515,0.3522,0.3527,0.3548,0.3462,0,0,0,0,0,0.3427,0.3434,0.3466,0.3465,0.348,0.3503,0.3512,0.352,0.3527,0.3526,0.3516,0.3511,0.3519,0.3512,0.3508,0.3507,0.3515,0.3516,0.3522,0.3526,0.3541,0.3572,0.3583,0.3472,0.3472,0.3472,0,0,0.3411,0.3432,0.3434,0.3458,0.3479,0.3503,0.3505,0.3522,0.354,0.3521,0.3529,0.3529,0.3525,0.3535,0.3535,0.3519,0.3562,0.3529,0.3533,0.3545,0.3576,0.3586,0.3596,0.3474,0.3474,0.3473,0,0,0.3391,0.3404,0.341,0.3436,0.3474,0.3496,0.3504,0.3527,0.3535,0.355,0.3551,0.3566,0.3556,0.3568,0.3573,0.3604,0.3594,0.3597,0.3636,0.3666,0.3676,0.3685,0.371,0.372,0.3594,0.3595,0.3595,0,0.3373,0.3382,0.3412,0.3434,0.3459,0.3496,0.3514,0.3535,0.3551,0.3565,0.3557,0.3586,0.358,0.3615,0.3635,0.3619,0.3632,0.3611,0.3675,0.3684,0.3692,0.3715,0.3726,0.3597,0.3597,0.3597,0.3596,0,0.3367,0.3379,0.3387,0.3433,0.3462,0.3481,0.3531,0.3551,0.3573,0.3596,0.363,0.3636,0.3651,0.3659,0.3661,0.3714,0.3704,0.3683,0.3661,0.3706,0.3728,0.3738,0.3602,0.3601,0.36,0.3599,0,0,0.332,0.3371,0.3375,0.3391,0.3463,0.3478,0.3533,0.3582,0.3617,0.364,0.3677,0.3713,0.372,0.3728,0.3729,0.3768,0.3839,0.3756,0.3756,0.3785,0.391,0.3802,0.3803,0.3831,0.3833,0.3834,0.3903,0,0.3308,0.3324,0.3368,0.3397,0.3413,0.3481,0.3524,0.3579,0.3632,0.3675,0.3712,0.3747,0.3744,0.376,0.3798,0.3833,0.3869,0.3823,0.3857,0.3859,0.3761,0.3812,0.371,0.3754,0.3913,0.3915,0.3916,0,0.3292,0.3306,0.3317,0.3371,0.3388,0.3415,0.3501,0.3547,0.3641,0.368,0.3738,0.3775,0.3843,0.3827,0.3915,0.3886,0.3907,0.3932,0.3935,0.3824,0.377,0.3733,0.3766,0.3708,0.3931,0.393,0.3929,0,0.323,0.3272,0.3271,0.3292,0.3363,0.3384,0.3432,0.3535,0.3573,0.369,0.3722,0.3816,0.3838,0.3909,0.3958,0.3949,0.4046,0.4028,0.3951,0.3944,0.3858,0.3838,0.3841,0.409,0.4089,0.4089,0.4089,0,0.3198,0.3204,0.3232,0.3234,0.3235,0.3323,0.3356,0.3432,0.3533,0.3579,0.37,0.3742,0.3862,0.3925,0.3981,0.399,0.4055,0.3975,0.3959,0.3872,0.3853,0.3796,0.3759,0.4092,0.4091,0.4091,0.409,0,0.3137,0.316,0.315,0.3191,0.3198,0.3199,0.3273,0.331,0.3426,0.3493,0.3529,0.3683,0.3784,0.3884,0.3999,0.3979,0.3924,0.4014,0.3899,0.3866,0.371,0.368,0.3494,0.3387,0.3952,0.395,0.3948,0,0.3115,0.3095,0.3082,0.3059,0.307,0.3086,0.3101,0.3224,0.3274,0.3446,0.3461,0.3601,0.3687,0.3806,0.3852,0.3928,0.3833,0.3821,0.3776,0.3697,0.3653,0.3496,0.341,0.37,0.3696,0.3693,0.3691,0,0.3055,0.3033,0.3006,0.295,0.2934,0.2941,0.2981,0.2999,0.316,0.3225,0.3343,0.3445,0.3587,0.363,0.3705,0.3737,0.3638,0.3754,0.3718,0.3491,0.3278,0.3168,0.3663,0.3664,0.3666,0.3668,0.367,0.3671,0.2992,0.2929,0.2871,0.2815,0.2801,0.2798,0.2772,0.285,0.2902,0.3,0.3166,0.3266,0.3421,0.3531,0.3518,0.3457,0.3427,0.3401,0.3386,0.3247,0.3077,0.3493,0.3432,0.3433,0.3434,0.3436,0.3436,0,0.2871,0.2806,0.275,0.2665,0.2616,0.2664,0.2683,0.2657,0.2668,0.2822,0.2913,0.3081,0.3135,0.3238,0.3271,0.3157,0.3008,0.3072,0.2885,0.2832,0.3272,0.3198,0.3025,0.3025,0.3025,0.3025,0.3026,0.3026,0.2798,0.267,0.2624,0.2494,0.2457,0.2376,0.2366,0.2363,0.2435,0.2506,0.2606,0.274,0.2992,0.3089,0.3034,0.2955,0.2746,0.2588,0.2563,0.2966,0.2997,0.3027,0.295,0.2729,0.2728,0.2031,0.2026,0.2022]},{"header":{"parameterUnit":"m.s-1","parameterCategory":2,"la1":30.2991,"la2":30.254,"lo1":-89.0895,"lo2":-89.0444,"dy":0.0017,"dx":0.0017,"nx":28,"ny":28,"refTime":"2023-10-05T03:00:00:Z","depth":"0","parameterNumber":3,"parameterNumberName":"V-component_of_CURRENTS"},"data":[0,0,0,0,0,0,0,0,0,0,0,0,0,0,0,0,0,0,0,0,0,0,0,0,0,0,0,0,0,0,0,0,0,0,0,0,0,0,0,0,0,0,0,0,0,0,0,0,0,0,0,0,0,0,0,0,0,0,-0.0472,-0.0472,0,-0.055,-0.055,-0.0551,-0.061,-0.0611,-0.0612,-0.0612,-0.0698,-0.0699,-0.0701,0,0,0,0,0,0,0,0,0,0,0,0,0,-0.0393,-0.0393,-0.0471,-0.0473,-0.0474,-0.055,-0.055,-0.0551,-0.061,-0.0611,-0.0612,-0.0613,-0.0697,-0.0699,-0.0701,0,0,0,0,0,0,0,0,0,0,0,0,0,-0.0442,-0.0394,-0.0471,-0.0514,-0.0518,-0.0549,-0.055,-0.0552,-0.061,-0.0611,-0.0612,-0.0613,-0.0697,-0.0699,-0.0701,-0.0695,0,0,-0.0709,-0.071,0,0,0,0,0,0,0,0,-0.0439,-0.0445,-0.0506,-0.0511,-0.0516,-0.0573,-0.0554,-0.0601,-0.061,-0.0573,-0.0612,-0.0614,-0.0657,-0.0663,-0.0672,-0.0699,-0.0702,-0.0709,-0.071,-0.0711,-0.0712,0,0,0,0,0,0,0,-0.0436,-0.0442,-0.0501,-0.0507,-0.0513,-0.0536,-0.0543,-0.0563,-0.0607,-0.0576,-0.0581,-0.0593,-0.066,-0.067,-0.0675,-0.0704,-0.0709,-0.0711,-0.0712,-0.0713,-0.0783,-0.0783,0,0,0,0,0,0,-0.0428,-0.0439,-0.0498,-0.0503,-0.0482,-0.0536,-0.0545,-0.0552,-0.0607,-0.0617,-0.0592,-0.0595,-0.0665,-0.0672,-0.0678,-0.0685,-0.0711,-0.0714,-0.0715,-0.0782,-0.0783,-0.0783,0,0,0,0,0,0,-0.0426,-0.0432,-0.0495,-0.0474,-0.0484,-0.0536,-0.0544,-0.0553,-0.0561,-0.0619,-0.0628,-0.059,-0.0666,-0.0675,-0.0703,-0.0688,-0.0715,-0.0717,-0.0782,-0.0782,-0.0783,-0.0691,0,0,0,0,0,0,-0.0423,-0.0431,-0.0427,-0.0474,-0.0485,-0.05,-0.0544,-0.0554,-0.0568,-0.0573,-0.062,-0.063,-0.0668,-0.0699,-0.0705,-0.0692,-0.0719,-0.0781,-0.0782,-0.0783,-0.0693,-0.0688,-0.0684,0,0,0,0,0,-0.042,-0.0407,-0.0426,-0.0433,-0.048,-0.0499,-0.0505,-0.0546,-0.0566,-0.0558,-0.0606,-0.0628,-0.0709,-0.0701,-0.0708,-0.0695,-0.0781,-0.0782,-0.0783,-0.0695,-0.0689,-0.0684,0,0,0,0,0,0,-0.0358,-0.0413,-0.0435,-0.0436,-0.0461,-0.0509,-0.0508,-0.0534,-0.0564,-0.0575,-0.0626,-0.0638,-0.066,-0.0694,-0.0684,-0.0722,-0.0751,-0.0753,-0.0682,-0.0676,-0.0672,-0.0637,-0.0721,0,0,0,0,0,-0.0345,-0.0357,-0.0403,-0.0401,-0.0412,-0.0457,-0.0468,-0.0498,-0.0534,-0.0548,-0.0582,-0.0629,-0.0668,-0.0684,-0.0722,-0.0731,-0.0745,-0.0734,-0.0729,-0.0724,-0.0704,-0.0732,-0.0726,-0.0786,-0.0786,-0.0786,0,0,-0.032,-0.0352,-0.0358,-0.039,-0.0414,-0.0414,-0.0465,-0.0479,-0.0481,-0.0552,-0.0557,-0.0608,-0.0669,-0.069,-0.0703,-0.0715,-0.0712,-0.0725,-0.0721,-0.0703,-0.0732,-0.0725,-0.072,-0.0786,-0.0786,-0.0786,0,0,-0.0265,-0.0303,-0.0289,-0.0311,-0.0348,-0.0378,-0.0376,-0.0419,-0.044,-0.046,-0.0517,-0.0557,-0.0605,-0.0647,-0.0677,-0.0666,-0.0687,-0.0682,-0.0622,-0.0649,-0.0643,-0.0639,-0.0625,-0.062,-0.0678,-0.0677,-0.0677,0,-0.0229,-0.0227,-0.0283,-0.0275,-0.0286,-0.0354,-0.0334,-0.0363,-0.0408,-0.0415,-0.0452,-0.0528,-0.0585,-0.0609,-0.0618,-0.0651,-0.0655,-0.0633,-0.0639,-0.0635,-0.0631,-0.0619,-0.0614,-0.0673,-0.0674,-0.0674,-0.0674,0,-0.0169,-0.0168,-0.016,-0.0179,-0.0193,-0.0193,-0.0245,-0.0254,-0.0295,-0.0326,-0.0358,-0.0442,-0.0482,-0.0517,-0.0567,-0.0572,-0.0577,-0.0627,-0.0642,-0.0619,-0.0608,-0.0605,-0.0667,-0.0668,-0.067,-0.0671,0,0,-0.0084,-0.0111,-0.0107,-0.0097,-0.0149,-0.0147,-0.0155,-0.0171,-0.0158,-0.0225,-0.0209,-0.0308,-0.035,-0.0388,-0.0456,-0.049,-0.048,-0.0539,-0.0543,-0.0503,-0.05,-0.0473,-0.0467,-0.0527,-0.0527,-0.0527,-0.0491,0,-0.0016,0.0028,-0.0015,0.0026,0.0044,-0.0025,-0.0018,-0.0048,-0.0087,-0.0089,-0.0185,-0.0208,-0.0303,-0.0323,-0.0369,-0.0455,-0.0471,-0.0483,-0.0547,-0.0548,-0.051,-0.0464,-0.0429,-0.0392,-0.0489,-0.0488,-0.0488,0,0.0053,0.0074,0.0132,0.0132,0.0134,0.015,0.015,0.0143,0.0103,0.0073,0.0027,-0.0051,-0.011,-0.0203,-0.0305,-0.0303,-0.0384,-0.0455,-0.0456,-0.0458,-0.0516,-0.044,-0.0383,-0.053,-0.0483,-0.0484,-0.0484,0,0.0144,0.017,0.0225,0.0222,0.0218,0.0241,0.0238,0.0209,0.0222,0.0185,0.0191,0.0097,0.0068,-0.0058,-0.0211,-0.0255,-0.0309,-0.0395,-0.0436,-0.0434,-0.043,-0.0428,-0.0504,-0.0453,-0.0453,-0.0453,-0.0453,0,0.0214,0.0254,0.0283,0.0311,0.0388,0.0345,0.0412,0.0389,0.0384,0.043,0.0292,0.0312,0.01,0.0028,-0.0134,-0.0244,-0.0246,-0.0395,-0.0421,-0.0396,-0.0391,-0.0542,-0.0636,-0.0452,-0.0452,-0.0452,-0.0452,0,0.0283,0.0296,0.0371,0.0412,0.0432,0.049,0.0527,0.057,0.0546,0.0605,0.0598,0.0498,0.0408,0.0212,0.0034,-0.0114,-0.0323,-0.0295,-0.0227,-0.0245,-0.0442,-0.0532,-0.0615,-0.0687,-0.0334,-0.0333,-0.0332,0,0.0309,0.0362,0.0462,0.0519,0.0542,0.0617,0.0666,0.0661,0.0712,0.0732,0.0777,0.0705,0.0681,0.0445,0.0169,-0.0061,-0.025,-0.019,-0.0291,-0.0415,-0.0536,-0.0611,-0.0674,-0.0241,-0.024,-0.0239,-0.0238,0,0.0373,0.0425,0.0497,0.0621,0.0701,0.0783,0.0859,0.0927,0.0942,0.1004,0.1075,0.1062,0.084,0.0629,0.0304,0.011,-0.0282,-0.0173,-0.0335,-0.0478,-0.0533,-0.0626,-0.0282,-0.0227,-0.0228,-0.0229,-0.0229,-0.023,0.043,0.0505,0.0614,0.0725,0.0818,0.093,0.1014,0.111,0.1229,0.133,0.1315,0.1352,0.1031,0.0589,0.0313,-0.0156,-0.0207,-0.0325,-0.042,-0.0482,-0.0565,-0.0167,-0.0132,-0.0132,-0.0133,-0.0133,-0.0133,0,0.0502,0.0586,0.0695,0.0836,0.094,0.0975,0.1123,0.122,0.139,0.1516,0.1592,0.1506,0.1096,0.0645,0.0023,-0.0335,-0.0507,-0.0543,-0.0667,-0.0722,-0.0387,-0.0398,-0.0378,-0.0378,-0.0378,-0.0378,-0.0378,-0.0378,0.0544,0.0671,0.0728,0.091,0.1002,0.1149,0.1241,0.1402,0.1532,0.1722,0.1799,0.1815,0.1515,0.0382,-0.0412,-0.062,-0.0886,-0.0925,-0.1079,-0.0882,-0.0871,-0.086,-0.0894,-0.0978,-0.0979,-0.1373,-0.1377,-0.138]}],[{"header":{"parameterUnit":"m.s-1","parameterCategory":2,"la1":30.2991,"la2":30.254,"lo1":-89.0895,"lo2":-89.0444,"dy":0.0017,"dx":0.0017,"nx":28,"ny":28,"refTime":"2023-10-05T03:00:00:Z","depth":"2","parameterNumber":2,"parameterNumberName":"U-component_of_CURRENTS"},"data":[0,0,0,0,0,0,0,0,0,0,0,0,0,0,0,0,0,0,0,0,0,0,0,0,0,0,0,0,0,0,0,0,0,0,0,0,0,0,0,0,0,0,0,0,0,0,0,0,0,0,0,0,0,0,0,0,0,0,0.2607,0.2608,0,0.2616,0.2616,0.2615,0.2591,0.259,0.259,0.259,0.2636,0.2638,0.2639,0,0,0,0,0,0,0,0,0,0,0,0,0,0.2584,0.2584,0.2607,0.2608,0.2608,0.2616,0.2616,0.2615,0.2591,0.259,0.259,0.2589,0.2635,0.2637,0.2639,0,0,0,0,0,0,0,0,0,0,0,0,0,0.2589,0.2584,0.2607,0.26,0.26,0.2616,0.2616,0.2615,0.2591,0.259,0.259,0.2589,0.2635,0.2637,0.2639,0.2664,0,0,0.2647,0.2648,0,0,0,0,0,0,0,0,0.2589,0.2589,0.2601,0.2601,0.2601,0.2606,0.2625,0.2635,0.2591,0.2589,0.259,0.2589,0.2633,0.2635,0.2631,0.2666,0.2668,0.2647,0.2648,0.2649,0.265,0,0,0,0,0,0,0,0.2588,0.2589,0.2606,0.2602,0.2602,0.2602,0.2602,0.2626,0.2611,0.259,0.2589,0.2597,0.2632,0.2629,0.2632,0.2669,0.2647,0.2649,0.265,0.2651,0.2737,0.2738,0,0,0,0,0,0,0.2596,0.2589,0.2606,0.2607,0.2599,0.2603,0.2602,0.2601,0.261,0.2612,0.2598,0.2596,0.2625,0.2629,0.2634,0.2705,0.2649,0.2651,0.2653,0.2736,0.2737,0.2738,0,0,0,0,0,0,0.2596,0.2597,0.2606,0.2602,0.2604,0.2605,0.2603,0.2601,0.2625,0.2617,0.2618,0.2627,0.2625,0.263,0.2661,0.2705,0.2652,0.2654,0.2735,0.2736,0.2738,0.2822,0,0,0,0,0,0,0.2595,0.2597,0.2601,0.2602,0.2604,0.2624,0.2604,0.2602,0.2632,0.263,0.2642,0.2643,0.2625,0.2658,0.2664,0.2708,0.2656,0.2734,0.2736,0.2737,0.2818,0.2826,0.2833,0,0,0,0,0,0.2594,0.2587,0.2601,0.2604,0.2609,0.2625,0.2626,0.2622,0.2634,0.2642,0.2647,0.2644,0.2672,0.2661,0.2667,0.2713,0.2733,0.2735,0.2737,0.2815,0.2825,0.2833,0,0,0,0,0,0,0.2567,0.2585,0.2599,0.2597,0.2622,0.2623,0.2629,0.2648,0.2659,0.2664,0.2661,0.2662,0.271,0.2695,0.2683,0.2738,0.2702,0.2705,0.2759,0.2768,0.2775,0.2763,0.2658,0,0,0,0,0,0.2571,0.2583,0.2601,0.2609,0.2619,0.264,0.2651,0.2659,0.267,0.2676,0.2679,0.2689,0.272,0.273,0.274,0.2776,0.2768,0.2806,0.2813,0.282,0.2812,0.2846,0.2856,0.2745,0.2745,0.2745,0,0,0.256,0.2581,0.2583,0.2609,0.2624,0.264,0.2644,0.2669,0.2695,0.2682,0.2707,0.2725,0.2737,0.2769,0.2788,0.2765,0.2847,0.2822,0.2828,0.2816,0.2849,0.286,0.287,0.2746,0.2746,0.2746,0,0,0.2555,0.257,0.258,0.2603,0.2644,0.2657,0.2678,0.2695,0.2713,0.275,0.2753,0.2785,0.2816,0.2823,0.284,0.2896,0.2893,0.2912,0.2937,0.2972,0.2981,0.299,0.2997,0.3005,0.2907,0.2907,0.2907,0,0.2549,0.2562,0.2587,0.2609,0.2625,0.2673,0.2685,0.2719,0.2746,0.2767,0.2764,0.2825,0.284,0.2897,0.2911,0.2916,0.2925,0.2909,0.2983,0.2991,0.2998,0.3003,0.3011,0.2911,0.2911,0.291,0.291,0,0.2549,0.2568,0.2577,0.2622,0.2642,0.2665,0.2711,0.2744,0.2782,0.2811,0.2877,0.2891,0.2921,0.2946,0.2952,0.3018,0.3006,0.3,0.2965,0.3015,0.3016,0.3024,0.2918,0.2916,0.2915,0.2914,0,0,0.2508,0.2564,0.257,0.2596,0.2649,0.2669,0.2721,0.2775,0.2829,0.2865,0.2914,0.2977,0.2994,0.3011,0.3031,0.3059,0.3128,0.3056,0.3055,0.3069,0.3196,0.3148,0.3151,0.3149,0.3151,0.3152,0.3178,0,0.2505,0.254,0.2566,0.2607,0.2624,0.2677,0.2724,0.2787,0.2848,0.2905,0.2956,0.3015,0.3023,0.3053,0.3088,0.3127,0.315,0.312,0.3137,0.3137,0.3096,0.3159,0.2919,0.292,0.3185,0.3186,0.3186,0,0.2489,0.2522,0.2545,0.2612,0.2623,0.2657,0.274,0.2791,0.2892,0.2939,0.3003,0.3048,0.3115,0.3106,0.3186,0.3174,0.3187,0.3202,0.3204,0.313,0.3103,0.291,0.2922,0.3198,0.3197,0.3196,0.3195,0,0.2449,0.2505,0.2525,0.2545,0.2623,0.2652,0.2701,0.2798,0.2851,0.2963,0.3005,0.3095,0.3139,0.3184,0.323,0.3221,0.3299,0.3284,0.3243,0.3239,0.3019,0.2993,0.3321,0.3321,0.3321,0.3321,0.3321,0,0.2425,0.2449,0.2516,0.2533,0.2576,0.2636,0.2699,0.2771,0.2864,0.2927,0.3019,0.308,0.3166,0.3223,0.3247,0.3274,0.3315,0.3254,0.3251,0.3041,0.3018,0.3239,0.3229,0.3322,0.3322,0.3322,0.3322,0,0.2379,0.2419,0.2456,0.2534,0.2557,0.2591,0.2679,0.2727,0.2832,0.291,0.2944,0.3081,0.3172,0.3231,0.3308,0.329,0.332,0.3307,0.3047,0.3013,0.3226,0.322,0.3267,0.3265,0.3264,0.3263,0.3263,0,0.2356,0.237,0.2442,0.2457,0.2493,0.255,0.2583,0.2693,0.274,0.2908,0.293,0.3062,0.3134,0.3228,0.3234,0.3254,0.3308,0.3023,0.2962,0.3233,0.3225,0.3221,0.3216,0.2698,0.2692,0.2688,0.2684,0,0.2319,0.2347,0.2377,0.2404,0.2435,0.2469,0.2528,0.2561,0.2691,0.276,0.2865,0.2944,0.306,0.2997,0.3039,0.3018,0.3007,0.2937,0.3291,0.2762,0.2702,0.2693,0.2706,0.2646,0.265,0.2652,0.2655,0.2656,0.2287,0.2293,0.2324,0.2339,0.2365,0.2374,0.2369,0.2435,0.2488,0.2565,0.2714,0.2744,0.28,0.2762,0.2689,0.2635,0.2845,0.2706,0.2716,0.2732,0.2675,0.2618,0.2533,0.2536,0.2539,0.2542,0.2544,0,0.2225,0.2237,0.225,0.2253,0.223,0.2281,0.2307,0.2276,0.2283,0.2389,0.245,0.2305,0.2285,0.2336,0.2208,0.2219,0.2168,0.2118,0.2022,0.2065,0.2102,0.2008,0.1692,0.1689,0.1686,0.1683,0,0,0.2195,0.2173,0.2169,0.2104,0.2106,0.2043,0.2034,0.2013,0.2042,0.2025,0.2025,0.2198,0.2288,0.1958,0.1924,0.1782,0.1899,0.1712,0.2406,0.2337,0.2369,0.2464,0.2373,0,0,0,0,0]},{"header":{"parameterUnit":"m.s-1","parameterCategory":2,"la1":30.2991,"la2":30.254,"lo1":-89.0895,"lo2":-89.0444,"dy":0.0017,"dx":0.0017,"nx":28,"ny":28,"refTime":"2023-10-05T03:00:00:Z","depth":"2","parameterNumber":3,"parameterNumberName":"V-component_of_CURRENTS"},"data":[0,0,0,0,0,0,0,0,0,0,0,0,0,0,0,0,0,0,0,0,0,0,0,0,0,0,0,0,0,0,0,0,0,0,0,0,0,0,0,0,0,0,0,0,0,0,0,0,0,0,0,0,0,0,0,0,0,0,0.0323,0.0322,0,0.0257,0.0256,0.0255,0.0226,0.0227,0.0227,0.0227,0.0111,0.0107,0.0104,0,0,0,0,0,0,0,0,0,0,0,0,0,0.0363,0.0362,0.0323,0.0322,0.0322,0.0257,0.0256,0.0255,0.0226,0.0227,0.0227,0.0227,0.0112,0.0108,0.0104,0,0,0,0,0,0,0,0,0,0,0,0,0,0.0324,0.0362,0.0323,0.0301,0.0299,0.0257,0.0256,0.0255,0.0226,0.0227,0.0227,0.0227,0.0113,0.0108,0.0103,0.0063,0,0,0.0088,0.0086,0,0,0,0,0,0,0,0,0.0327,0.0323,0.0305,0.0303,0.03,0.0252,0.0228,0.0189,0.0226,0.0251,0.0227,0.0228,0.0154,0.0146,0.013,0.0058,0.0053,0.0087,0.0084,0.0082,0.0081,0,0,0,0,0,0,0,0.0329,0.0325,0.0295,0.0304,0.0301,0.0274,0.0269,0.022,0.0199,0.0249,0.0247,0.0243,0.0152,0.0135,0.0127,0.0051,0.0088,0.0083,0.008,0.0078,-0.0027,-0.0026,0,0,0,0,0,0,0.0344,0.0328,0.0297,0.0293,0.0317,0.0273,0.0268,0.0265,0.02,0.0192,0.0243,0.0242,0.0144,0.0133,0.0123,0.0098,0.0082,0.0077,0.0075,-0.0027,-0.0027,-0.0026,0,0,0,0,0,0,0.0346,0.0342,0.0299,0.031,0.0303,0.0273,0.027,0.0264,0.0245,0.0197,0.0187,0.0231,0.0144,0.013,0.0097,0.0093,0.0075,0.0071,-0.0027,-0.0027,-0.0027,0.0032,0,0,0,0,0,0,0.0347,0.0343,0.0344,0.0312,0.0303,0.0285,0.0269,0.0262,0.0243,0.0241,0.0183,0.0173,0.0143,0.0105,0.0092,0.0085,0.0067,-0.0028,-0.0027,-0.0027,0.003,0.0034,0.0038,0,0,0,0,0,0.0349,0.0361,0.0344,0.034,0.0306,0.0285,0.0278,0.0256,0.0242,0.0239,0.0208,0.0174,0.0099,0.0101,0.0086,0.0078,-0.0028,-0.0027,-0.0027,0.0028,0.0033,0.0038,0,0,0,0,0,0,0.0379,0.0358,0.0339,0.0343,0.0316,0.0281,0.0279,0.0254,0.0224,0.0224,0.0174,0.0162,0.0128,0.0097,0.0101,0.0051,0.003,0.0028,0.0077,0.0081,0.0086,0.0115,0.0062,0,0,0,0,0,0.0385,0.0383,0.0355,0.0351,0.0346,0.0306,0.0293,0.0277,0.0248,0.0235,0.0195,0.0156,0.0117,0.0097,0.0058,0.0028,0.0002,0.0014,0.0018,0.0022,0.0036,0.0,0.0003,-0.0025,-0.0025,-0.0025,0,0,0.0397,0.038,0.0381,0.0356,0.0335,0.0333,0.03,0.0287,0.0281,0.0225,0.0206,0.0163,0.0112,0.0085,0.0067,0.006,0.0016,0.0023,0.0026,0.0039,0.0001,0.0004,0.0006,-0.0024,-0.0024,-0.0024,0,0,0.0418,0.0404,0.0411,0.0396,0.0371,0.0351,0.0348,0.0315,0.0299,0.027,0.0233,0.0201,0.0133,0.011,0.0085,0.0087,0.0036,0.0063,0.0109,0.0073,0.0075,0.0077,0.0049,0.0047,0.0069,0.007,0.007,0,0.043,0.0434,0.0408,0.041,0.041,0.0363,0.0376,0.0349,0.0307,0.0297,0.0275,0.0195,0.0151,0.0123,0.0129,0.0097,0.0069,0.0093,0.008,0.0081,0.0081,0.0052,0.0049,0.0072,0.0072,0.0072,0.0071,0,0.0458,0.046,0.0466,0.0455,0.045,0.0453,0.0425,0.0408,0.0378,0.0349,0.0312,0.0256,0.0214,0.0187,0.0157,0.0138,0.0113,0.0086,0.007,0.0088,0.0055,0.0052,0.0077,0.0075,0.0075,0.0074,0,0,0.0495,0.0488,0.0491,0.0496,0.048,0.048,0.0475,0.046,0.0459,0.0404,0.04,0.0331,0.0298,0.0269,0.022,0.0191,0.0167,0.0147,0.0143,0.0125,0.0089,0.0073,0.0068,0.0131,0.0131,0.013,0.0065,0,0.0524,0.0546,0.0537,0.0561,0.0574,0.0547,0.055,0.0528,0.0497,0.0479,0.0416,0.0387,0.0328,0.0309,0.027,0.0192,0.016,0.0188,0.0069,0.0067,0.0055,0.0064,0.0091,0.0035,0.0061,0.006,0.006,0,0.0561,0.057,0.0606,0.0618,0.0625,0.0635,0.0641,0.0636,0.06,0.0576,0.0535,0.0477,0.0427,0.0374,0.0258,0.0274,0.0193,0.013,0.0125,0.0092,0.0045,0.002,0.0027,0.0054,0.0054,0.0055,0.0055,0,0.0606,0.0622,0.0656,0.0661,0.0667,0.0682,0.0687,0.0669,0.0678,0.0642,0.064,0.0557,0.0526,0.0413,0.0277,0.0264,0.0149,0.0111,0.0022,0.002,0.0013,0.001,0.0036,0.0036,0.0036,0.0036,0.0036,0,0.0646,0.0669,0.068,0.0698,0.0744,0.0735,0.0778,0.0764,0.0763,0.079,0.0698,0.0697,0.0533,0.044,0.0307,0.016,0.0167,0.0039,0.0004,0.0033,0.0034,0.0025,0.0025,0.0034,0.0034,0.0035,0.0035,0,0.0683,0.069,0.0727,0.075,0.0766,0.08,0.0845,0.087,0.0859,0.0894,0.0888,0.0803,0.0687,0.0513,0.0336,0.021,0.0064,0.0008,0.0058,0.0031,-0.0049,-0.0046,-0.0096,-0.0097,-0.0098,-0.0098,-0.0099,0,0.0704,0.0727,0.0772,0.0804,0.0819,0.0869,0.0909,0.0921,0.096,0.0965,0.0991,0.089,0.0838,0.0568,0.0331,0.0098,0.0063,-0.0034,-0.0054,-0.0033,-0.0062,-0.0057,-0.0053,-0.0044,-0.0044,-0.0045,-0.0045,0,0.0739,0.0755,0.0785,0.0854,0.0906,0.0969,0.103,0.1079,0.1106,0.1139,0.1165,0.1124,0.0873,0.0642,0.0318,0.0163,0.0003,-0.0044,-0.0037,-0.0012,0.0011,-0.0016,-0.0013,-0.0046,-0.0045,-0.0045,-0.0045,-0.0045,0.0765,0.0791,0.0835,0.0903,0.0969,0.1058,0.1124,0.1198,0.1282,0.1336,0.1299,0.1244,0.098,0.0568,0.0288,-0.0008,0.0007,-0.0099,-0.0097,-0.0095,-0.0073,-0.0054,-0.0118,-0.0118,-0.0118,-0.0118,-0.0119,0,0.0787,0.0819,0.0881,0.0963,0.1043,0.1077,0.1197,0.1269,0.1385,0.1427,0.1448,0.1195,0.0928,0.0614,0.018,-0.0075,-0.0092,-0.016,-0.0124,-0.0121,-0.0118,-0.0098,-0.0149,-0.015,-0.0151,-0.0152,0,0,0.0796,0.0845,0.0876,0.1006,0.1077,0.1193,0.1269,0.138,0.1447,0.1496,0.1463,0.1395,0.1021,0.0702,0.0352,0.0097,0.0048,0.005,0.0105,0.0193,0.0199,-0.005,-0.001,0,0,0,0,0]}],[{"header":{"parameterUnit":"m.s-1","parameterCategory":2,"la1":30.2991,"la2":30.254,"lo1":-89.0895,"lo2":-89.0444,"dy":0.0017,"dx":0.0017,"nx":28,"ny":28,"refTime":"2023-10-05T03:00:00:Z","depth":"4","parameterNumber":2,"parameterNumberName":"U-component_of_CURRENTS"},"data":[0,0,0,0,0,0,0,0,0,0,0,0,0,0,0,0,0,0,0,0,0,0,0,0,0,0,0,0,0,0,0,0,0,0,0,0,0,0,0,0,0,0,0,0,0,0,0,0,0,0,0,0,0,0,0,0,0,0,0.1517,0.1517,0,0.153,0.153,0.153,0.1547,0.1547,0.1547,0.1548,0.1607,0.1608,0.1609,0,0,0,0,0,0,0,0,0,0,0,0,0,0.144,0.1442,0.1517,0.1517,0.1518,0.153,0.153,0.153,0.1547,0.1547,0.1547,0.1548,0.1606,0.1608,0.1609,0,0,0,0,0,0,0,0,0,0,0,0,0,0.1465,0.1442,0.1517,0.1528,0.1529,0.153,0.153,0.1531,0.1547,0.1547,0.1547,0.1548,0.1606,0.1608,0.1609,0.1612,0,0,0.1615,0.1616,0,0,0,0,0,0,0,0,0.1463,0.1468,0.1526,0.1527,0.1528,0.1538,0.1525,0.156,0.1546,0.1539,0.1548,0.1548,0.1588,0.1591,0.1591,0.1614,0.1617,0.1615,0.1617,0.1617,0.1618,0,0,0,0,0,0,0,0.1462,0.1467,0.1522,0.1526,0.1528,0.1509,0.1514,0.1531,0.1561,0.154,0.1541,0.1544,0.1589,0.1589,0.1593,0.1618,0.1615,0.1617,0.1618,0.1619,0.1723,0.1724,0,0,0,0,0,0,0.1465,0.1466,0.1521,0.1522,0.1497,0.151,0.1515,0.1534,0.156,0.1564,0.1543,0.1544,0.1586,0.1591,0.1595,0.1682,0.1617,0.1619,0.162,0.1721,0.1723,0.1725,0,0,0,0,0,0,0.1463,0.147,0.1521,0.1493,0.1499,0.1512,0.1532,0.1534,0.1567,0.1562,0.1567,0.1578,0.1586,0.1592,0.1644,0.1682,0.162,0.1622,0.1719,0.1722,0.1724,0.1804,0,0,0,0,0,0,0.1461,0.147,0.1497,0.1494,0.15,0.1546,0.1531,0.1534,0.1566,0.1569,0.1593,0.1597,0.1587,0.1641,0.1645,0.1683,0.1623,0.1717,0.172,0.1723,0.18,0.1809,0.1817,0,0,0,0,0,0.1459,0.1478,0.1499,0.1506,0.1534,0.1547,0.1549,0.1558,0.1568,0.1589,0.1611,0.1598,0.1663,0.1644,0.1649,0.1688,0.1716,0.172,0.1723,0.1796,0.1807,0.1817,0,0,0,0,0,0,0.1457,0.1482,0.1504,0.1533,0.1556,0.1551,0.1569,0.158,0.1612,0.1627,0.1623,0.1629,0.1688,0.1678,0.1657,0.1726,0.1686,0.169,0.1739,0.175,0.1759,0.1766,0.1625,0,0,0,0,0,0.1472,0.1501,0.152,0.1551,0.1564,0.1579,0.1591,0.1604,0.1623,0.1638,0.166,0.168,0.17,0.1719,0.1735,0.1777,0.1775,0.1803,0.1812,0.182,0.1829,0.1857,0.1869,0.1737,0.1737,0.1737,0,0,0.1482,0.1499,0.1518,0.1554,0.1572,0.1597,0.1589,0.1621,0.1653,0.1641,0.1706,0.1721,0.172,0.1766,0.179,0.1767,0.186,0.1824,0.1831,0.1836,0.1862,0.1875,0.1886,0.1739,0.1739,0.1738,0,0,0.1499,0.1534,0.1562,0.1586,0.1624,0.163,0.1651,0.1681,0.1709,0.1763,0.1764,0.1806,0.184,0.1847,0.185,0.1919,0.1909,0.1929,0.1979,0.2007,0.2018,0.2028,0.2055,0.2066,0.193,0.193,0.193,0,0.1512,0.1551,0.1573,0.1603,0.1625,0.1653,0.1686,0.1714,0.1763,0.1792,0.1798,0.1867,0.1873,0.1917,0.1943,0.194,0.1956,0.1939,0.2019,0.2028,0.2037,0.2062,0.2074,0.1934,0.1934,0.1933,0.1933,0,0.1542,0.1586,0.1602,0.1654,0.1683,0.1715,0.1754,0.1803,0.1841,0.1866,0.1943,0.196,0.1997,0.2008,0.1998,0.2065,0.2058,0.203,0.1992,0.2055,0.2078,0.2088,0.194,0.1939,0.1938,0.1936,0,0,0.1535,0.1609,0.1621,0.1656,0.1714,0.1736,0.1801,0.1855,0.1905,0.1965,0.2024,0.2071,0.2095,0.2102,0.2107,0.2133,0.2211,0.2119,0.2118,0.2146,0.2286,0.2151,0.215,0.2204,0.2206,0.2208,0.2282,0,0.1555,0.1617,0.165,0.1717,0.1749,0.1798,0.1851,0.1911,0.1964,0.2032,0.2069,0.213,0.2125,0.2161,0.2191,0.2209,0.2242,0.2194,0.222,0.2221,0.2093,0.2158,0.2214,0.229,0.2292,0.2294,0.2295,0,0.1567,0.1608,0.1676,0.1752,0.1773,0.1822,0.1911,0.1967,0.2056,0.2102,0.2171,0.2201,0.2274,0.2249,0.2326,0.2302,0.231,0.2312,0.2315,0.2166,0.2105,0.221,0.2314,0.2312,0.2311,0.231,0.2308,0,0.1535,0.162,0.1676,0.1704,0.1796,0.1848,0.1905,0.1996,0.205,0.2161,0.2209,0.2289,0.2343,0.2374,0.2398,0.2376,0.2463,0.2421,0.2307,0.2298,0.2361,0.2349,0.2469,0.2468,0.2468,0.2468,0.2468,0,0.1517,0.1567,0.1675,0.1706,0.178,0.1853,0.194,0.2011,0.2108,0.2167,0.2255,0.2307,0.2381,0.2431,0.2435,0.2411,0.2498,0.2331,0.2309,0.2394,0.2386,0.2369,0.2357,0.2471,0.247,0.247,0.2469,0,0.1469,0.1539,0.1612,0.1727,0.1769,0.1829,0.1952,0.2001,0.2116,0.2197,0.2237,0.2348,0.2416,0.2466,0.2518,0.2444,0.2438,0.2404,0.2516,0.2498,0.2246,0.2237,0.2279,0.2275,0.2271,0.2269,0.2266,0,0.1443,0.148,0.1619,0.1664,0.1723,0.1821,0.1874,0.1995,0.2039,0.22,0.2217,0.2336,0.2392,0.2361,0.2429,0.2432,0.2396,0.2374,0.2286,0.2252,0.2229,0.2225,0.2221,0.2261,0.226,0.2259,0.2258,0,0.1394,0.1466,0.1528,0.1618,0.1689,0.1751,0.1839,0.1858,0.1988,0.2108,0.214,0.217,0.2241,0.2273,0.2296,0.229,0.2376,0.2337,0.2343,0.226,0.223,0.2209,0.2209,0.2246,0.2247,0.2249,0.2249,0,0.1365,0.1397,0.1487,0.155,0.163,0.165,0.1712,0.1753,0.181,0.1968,0.1982,0.2106,0.222,0.2202,0.2227,0.2212,0.2165,0.2071,0.2089,0.2104,0.201,0.1944,0.1865,0,0,0,0,0,0.1321,0.1344,0.1402,0.1458,0.1527,0.157,0.1665,0.1723,0.1845,0.1814,0.1886,0.194,0.1974,0.2044,0.1992,0.216,0.2183,0.209,0.2086,0.2179,0.2193,0.2097,0,0,0,0,0,0,0.1292,0.1352,0.137,0.136,0.1375,0.1429,0.1485,0.1571,0.1556,0.1691,0.172,0.182,0.1887,0.1982,0.1955,0.1975,0.193,0.2169,0.2164,0.2171,0.2183,0.2195,0.2101,0,0,0,0,0]},{"header":{"parameterUnit":"m.s-1","parameterCategory":2,"la1":30.2991,"la2":30.254,"lo1":-89.0895,"lo2":-89.0444,"dy":0.0017,"dx":0.0017,"nx":28,"ny":28,"refTime":"2023-10-05T03:00:00:Z","depth":"4","parameterNumber":3,"parameterNumberName":"V-component_of_CURRENTS"},"data":[0,0,0,0,0,0,0,0,0,0,0,0,0,0,0,0,0,0,0,0,0,0,0,0,0,0,0,0,0,0,0,0,0,0,0,0,0,0,0,0,0,0,0,0,0,0,0,0,0,0,0,0,0,0,0,0,0,0,0.0357,0.0357,0,0.0324,0.0323,0.0323,0.0316,0.0317,0.0317,0.0317,0.0269,0.0268,0.0266,0,0,0,0,0,0,0,0,0,0,0,0,0,0.0379,0.0379,0.0357,0.0357,0.0357,0.0324,0.0323,0.0323,0.0316,0.0317,0.0317,0.0317,0.027,0.0268,0.0266,0,0,0,0,0,0,0,0,0,0,0,0,0,0.0359,0.0379,0.0357,0.035,0.0349,0.0324,0.0323,0.0323,0.0316,0.0317,0.0317,0.0318,0.0271,0.0268,0.0266,0.0241,0,0,0.0259,0.0258,0,0,0,0,0,0,0,0,0.0361,0.0359,0.0351,0.035,0.0349,0.0325,0.0313,0.0295,0.0316,0.0328,0.0317,0.0318,0.0287,0.0283,0.0275,0.0239,0.0237,0.0258,0.0257,0.0256,0.0255,0,0,0,0,0,0,0,0.0362,0.036,0.0343,0.0351,0.035,0.0336,0.0334,0.031,0.0304,0.0327,0.0327,0.0324,0.0286,0.0277,0.0274,0.0236,0.0259,0.0256,0.0255,0.0254,0.0201,0.0201,0,0,0,0,0,0,0.0369,0.0361,0.0344,0.0342,0.0357,0.0335,0.0333,0.0332,0.0305,0.0301,0.0323,0.0324,0.0281,0.0277,0.0272,0.0271,0.0256,0.0254,0.0252,0.0201,0.0201,0.0201,0,0,0,0,0,0,0.037,0.0368,0.0346,0.0351,0.0348,0.0335,0.0333,0.0331,0.0332,0.0302,0.0299,0.0328,0.0281,0.0275,0.0262,0.0268,0.0253,0.0251,0.0201,0.0201,0.0201,0.025,0,0,0,0,0,0,0.037,0.0368,0.0372,0.0352,0.0348,0.0341,0.0333,0.033,0.0329,0.0329,0.0304,0.03,0.0281,0.0266,0.026,0.0265,0.0249,0.0201,0.0201,0.0201,0.0248,0.0251,0.0254,0,0,0,0,0,0.0371,0.0377,0.0372,0.037,0.0353,0.0341,0.0338,0.0329,0.0329,0.0331,0.0316,0.0301,0.0262,0.0264,0.0257,0.0261,0.0201,0.0201,0.0201,0.0247,0.0251,0.0254,0,0,0,0,0,0,0.0386,0.0376,0.0371,0.0372,0.0362,0.0341,0.0343,0.0335,0.0324,0.0327,0.0301,0.0295,0.0287,0.0264,0.0268,0.0245,0.0229,0.0227,0.0266,0.0269,0.0272,0.0284,0.0247,0,0,0,0,0,0.0391,0.0394,0.0379,0.038,0.0378,0.0361,0.0356,0.0351,0.0337,0.0334,0.0315,0.0295,0.0278,0.0268,0.0249,0.0234,0.0206,0.0231,0.0234,0.0237,0.0241,0.0204,0.0205,0.0201,0.0201,0.0201,0,0,0.0398,0.0392,0.0394,0.0384,0.0376,0.0376,0.036,0.0358,0.0359,0.0328,0.0326,0.0306,0.0277,0.0266,0.0259,0.025,0.0222,0.0237,0.024,0.0242,0.0204,0.0205,0.0205,0.0201,0.0201,0.0201,0,0,0.0411,0.0408,0.0415,0.0409,0.0401,0.0392,0.0395,0.0379,0.0375,0.0365,0.0347,0.0332,0.0302,0.0285,0.0272,0.0277,0.0241,0.027,0.0293,0.0258,0.0258,0.0258,0.0219,0.0215,0.0269,0.027,0.027,0,0.0419,0.0426,0.0414,0.0418,0.0421,0.0404,0.0413,0.0403,0.0384,0.0382,0.0372,0.0333,0.031,0.0297,0.0302,0.0285,0.0257,0.0284,0.0262,0.0262,0.0261,0.0221,0.0216,0.0272,0.0272,0.0271,0.0271,0,0.0434,0.0442,0.0447,0.0449,0.0449,0.0455,0.0443,0.0441,0.0433,0.042,0.0406,0.0371,0.035,0.0338,0.0322,0.0307,0.0287,0.0273,0.0256,0.0264,0.0222,0.0215,0.0275,0.0274,0.0274,0.0273,0,0,0.045,0.0457,0.0461,0.0472,0.047,0.0474,0.0478,0.0477,0.0484,0.0456,0.0457,0.0422,0.0404,0.0387,0.0361,0.033,0.0298,0.0304,0.0301,0.0271,0.0216,0.0202,0.0193,0.0281,0.0281,0.028,0.0189,0,0.0468,0.0488,0.0487,0.0513,0.0525,0.0518,0.0526,0.0522,0.051,0.0504,0.0465,0.0455,0.0422,0.0415,0.0379,0.0322,0.0285,0.0324,0.0208,0.0204,0.0196,0.0187,0.0278,0.0184,0.0182,0.0181,0.0181,0,0.0487,0.05,0.053,0.0553,0.0559,0.0575,0.0593,0.0596,0.058,0.057,0.0546,0.0512,0.047,0.0441,0.0337,0.0364,0.0297,0.0244,0.0239,0.0206,0.0179,0.0173,0.0169,0.017,0.0171,0.0171,0.0172,0,0.051,0.0533,0.0564,0.0571,0.059,0.061,0.0624,0.0621,0.0634,0.0615,0.0617,0.0553,0.0529,0.0436,0.033,0.0332,0.021,0.0195,0.0114,0.0112,0.0131,0.0132,0.0117,0.0117,0.0117,0.0117,0.0118,0,0.053,0.0555,0.0582,0.06,0.0645,0.0647,0.069,0.0689,0.0695,0.0715,0.0659,0.065,0.0528,0.0444,0.034,0.0209,0.0211,0.0115,0.0087,0.0153,0.0157,0.0126,0.0128,0.0114,0.0115,0.0115,0.0116,0,0.0545,0.0562,0.0601,0.0638,0.0658,0.0692,0.0744,0.0767,0.0768,0.0791,0.0789,0.0719,0.061,0.0475,0.032,0.0227,0.0099,0.0051,0.013,0.0109,0.002,0.0026,-0.0052,-0.0054,-0.0055,-0.0056,-0.0056,0,0.0552,0.0575,0.0635,0.0667,0.069,0.0744,0.0783,0.0805,0.0833,0.0832,0.0843,0.0752,0.0687,0.0458,0.0312,0.0099,0.0071,-0.0004,0.0007,0.0022,0.0002,0.001,0.0017,-0.0058,-0.0058,-0.0059,-0.0059,0,0.0564,0.0591,0.0623,0.0693,0.0746,0.0805,0.0863,0.0888,0.0913,0.0916,0.0882,0.0765,0.064,0.0461,0.0294,0.0144,0.0039,-0.0016,-0.0015,-0.0005,0.0014,-0.0002,0.0006,-0.0063,-0.0062,-0.0062,-0.0062,0,0.0575,0.0598,0.0647,0.0708,0.0779,0.0843,0.0875,0.0907,0.0934,0.0932,0.0919,0.0787,0.0713,0.0483,0.0333,0.0179,0.0137,0.0081,0.0076,0.0078,0.0143,0.0188,0.0139,0,0,0,0,0,0.0575,0.0599,0.0656,0.0723,0.0798,0.0844,0.0916,0.0941,0.0971,0.0952,0.0937,0.0822,0.0598,0.0504,0.0348,0.03,0.0102,0.0109,0.0034,-0.0083,-0.0079,-0.0027,0,0,0,0,0,0,0.0571,0.0618,0.0646,0.0729,0.0781,0.0865,0.0915,0.0938,0.0929,0.0934,0.0821,0.0772,0.0557,0.0687,0.0342,0.0296,0.0223,0.001,0.0006,-0.0086,-0.0082,-0.0078,-0.0023,0,0,0,0,0]}]]